STARLINK-33785, 63516

Orbit data source: Space-Track

STARLINK-33785, 63516 is a payload satellite owned by SpaceX/Seattle (US) in LEO that was launched on Mon, 07 Apr 2025 UTC via an FALCON 9 launch vehicle from the Air Force Western Test Range (AFWTR). Payload-class satellites include a variety of spacecraft equipped with specific instruments for various scientific and technological missions. These include communications satellites like Starlink; space stations such as the ISS; scientific satellites like the Hubble; Earth observation satellites from companies like Planet Labs, Umbra, and HawkEye 360; GPS; miniature CubeSats for education and research; and military/defense satellites.

Loading next visibility...
Identifier
63516, 2025-071Z
Orbit
LEO
Country
Flag of USUS
Related business
Manufacturer
SpaceX/Seattle
Mission
Operational Commercial Communications
Bus & Motor
STARLINK V2MO, Unknown motor
Mass
575 kg wet, ~530 kg dry
Launch date (UTC)
2025-04-07 (10 months ago)
Launch vehicle
FALCON 9
Launch site
Air Force Western Test Range (AFWTR)
Object type
Payload
Rocket body
Debris
Shape & HBR
Box + 2 Pan, 17.7 m
Radar Cross Section
36.964 m², Large (>1 m²)

Expand to show TLE details & history
Last TLE update: 5 hours ago

TLE from 5 hours ago
0 STARLINK-33785
1 63516U 25071Z   26037.12546677  .00028213  00000-0  96153-3 0  9995
2 63516  53.1564 286.7577 0001086  55.4437 304.6666 15.30184808 47912
Epoch: 2026-02-06T03:00Z
TLE epoch observation values (Epoch: 2026-02-06T03:00:40.328Z)
Latitude
-0.00005°
Longitude
105.3218°
Altitude
475.736 km
Speed
7.629 km/s
True Right ascension
19h 07m 01s
True Declination
0° 00' 00"
Sunlit
Object was in daylight at epoch
Visualization orbit readout
Latitude
Unknown
Longitude
Unknown
Altitude
Unknown
Speed
Unknown
Apparent Right ascension
Unknown
Apparent Declination
Unknown
Sunlit
N/A
Visualization observer readout
Local Sidereal Time
10:00:40
Azimuth
Unknown
Elevation
Unknown
Doppler factor
Unknown
Orbital elements
Apogee altitude
476.262 km
Perigee altitude
474.773 km
Semi-major axis
6,853.654 km
Eccentricity
0.00011
Inclination
53.1564°
RAAN
286.7577°
Arg. of periapsis
55.4437°
True anomaly
304.65636°
Mean anomaly
304.6666°
Eccentric anomaly
304.66148°
Mean motion
3.82525 °/min
Orbital period
94.11 mins
BSTAR
0.00096153
Loading maneuver chart data...
Computing Atmospheric mass density...
Loading historical data...
Loading historical data...
Loading historical data...
Loading historical data...
Loading historical data...
Loading historical data...
Loading historical data...

Documentation

Showing up to 5 results
|